START_TIME,STEP,MOV.,M15,t_acc.,M20,t_acc.
1979-08-03 09:00:42.650 ,0,0,0.,24.0,0.,24.0
1979-08-03 09:01:06.650 ,0,1,0.,24.0,0.,24.0
1979-08-03 09:01:30.650 ,0,0,0.,24.0,0.,24.0
1979-08-03 09:01:54.650 ,1,1,0.,24.0,0.,24.0
1979-08-03 09:02:18.650 ,1,0,0.,24.0,0.,24.0
1979-08-03 09:02:42.650 ,2,1,0.,24.0,0.,24.0
1979-08-03 09:03:06.650 ,2,0,0.,24.0,0.,24.0
1979-08-03 09:03:30.650 ,3,1,0.,24.0,0.,24.0
1979-08-03 09:03:54.650 ,3,0,0.,24.0,0.,24.0
1979-08-03 09:04:18.650 ,4,1,0.,24.0,0.,24.0
1979-08-03 09:04:42.650 ,4,0,0.,24.0,0.,24.0
1979-08-03 09:05:06.650 ,5,1,0.,24.0,0.,24.0
1979-08-03 09:05:30.650 ,5,0,0.,24.0,0.,24.0
1979-08-03 09:05:54.650 ,6,1,0.,24.0,0.,24.0
1979-08-03 09:06:18.650 ,6,0,0.,24.0,0.,24.0
1979-08-03 09:06:42.650 ,0,0,,0,,0
1979-08-03 09:07:06.650 ,0,0,,0,,0
1979-08-03 09:08:33.650 ,0,0,0.,24.0,0.,24.0
1979-08-03 09:08:42.650 ,7,1,0.,24.0,0.,24.0
1979-08-03 09:09:06.650 ,3,1,0.,24.0,0.,24.0
1979-08-03 09:09:30.650 ,0,1,0.,24.0,0.,24.0
1979-08-03 09:09:54.650 ,4,1,0.,24.0,0.,24.0
1979-08-03 09:10:18.650 ,7,1,0.,24.0,0.,24.0
1979-08-03 09:10:42.650 ,3,1,0.,24.0,0.,24.0
1979-08-03 09:11:06.650 ,0,1,0.,24.0,0.,24.0
1979-08-03 09:11:30.650 ,4,1,0.,24.0,0.,24.0
1979-08-03 09:11:54.650 ,7,1,0.,24.0,0.,24.0
1979-08-03 09:12:18.650 ,3,1,0.,24.0,0.,24.0
1979-08-03 09:12:42.650 ,0,1,0.,24.0,0.,24.0
1979-08-03 09:13:06.650 ,4,1,0.,24.0,0.,24.0
1979-08-03 09:13:30.650 ,7,1,0.,24.0,0.,24.0
1979-08-03 09:13:54.650 ,3,1,0.,24.0,0.,24.0
1979-08-03 09:14:18.650 ,0,1,0.,24.0,0.,24.0
1979-08-03 09:14:42.650 ,4,1,0.,24.0,0.,24.0
1979-08-03 09:15:06.650 ,7,1,0.,24.0,0.,24.0
1979-08-03 09:15:30.650 ,3,1,0.,24.0,0.,24.0
1979-08-03 09:15:54.650 ,0,1,0.,24.0,0.,24.0
1979-08-03 09:16:18.650 ,4,1,0.,24.0,0.,24.0
1979-08-03 09:16:42.650 ,7,1,0.,24.0,0.,24.0
1979-08-03 09:17:06.650 ,3,1,0.,24.0,0.,24.0
1979-08-03 09:17:30.650 ,0,1,0.,24.0,0.,24.0
1979-08-03 09:17:54.650 ,0,0,0.,24.0,0.,24.0
1979-08-03 09:18:18.650 ,0,0,0.,24.0,0.,24.0
1979-08-03 09:18:42.650 ,5,1,0.,24.0,0.,24.0
1979-08-03 09:19:06.650 ,5,0,0.,24.0,0.,24.0
1979-08-03 09:19:30.650 ,4,1,0.,24.0,0.,24.0
1979-08-03 09:19:54.650 ,4,0,0.,24.0,0.,24.0
1979-08-03 09:20:18.650 ,3,1,0.,24.0,0.,24.0
1979-08-03 09:20:42.650 ,3,0,0.,24.0,0.,24.0
1979-08-03 09:21:06.650 ,2,1,0.,24.0,0.,24.0
1979-08-03 09:21:30.650 ,2,0,0.,24.0,0.,24.0
1979-08-03 09:21:54.650 ,1,1,0.,24.0,0.,24.0
1979-08-03 09:22:18.650 ,1,0,0.,24.0,0.,24.0
1979-08-03 09:22:42.650 ,0,1,0.,24.0,0.,24.0
1979-08-03 09:23:06.650 ,0,0,0.,24.0,0.,24.0
1979-08-03 09:23:30.650 ,0,1,0.,24.0,0.,24.0
1979-08-03 09:23:54.650 ,0,0,0.,24.0,0.,24.0
1979-08-03 09:24:18.650 ,1,1,0.,24.0,0.,24.0
1979-08-03 09:24:42.650 ,1,0,0.,24.0,0.,24.0
1979-08-03 09:25:06.650 ,2,1,0.,24.0,0.,24.0
1979-08-03 09:25:30.650 ,2,0,0.,24.0,0.,24.0
1979-08-03 09:25:54.650 ,3,1,0.,24.0,0.,24.0
1979-08-03 09:26:18.650 ,3,0,0.,24.0,0.,24.0
1979-08-03 09:26:42.650 ,4,1,0.,24.0,0.,24.0
1979-08-03 09:27:06.650 ,4,0,0.,24.0,0.,24.0
1979-08-03 09:27:30.650 ,5,1,0.,24.0,0.,24.0
1979-08-03 09:27:54.650 ,5,0,0.,24.0,0.,24.0
1979-08-03 09:28:18.650 ,6,1,0.,24.0,0.,24.0
1979-08-03 09:28:42.650 ,6,0,0.,24.0,0.,24.0
1979-08-03 09:29:06.650 ,7,1,0.,24.0,0.,24.0
1979-08-03 09:29:30.650 ,7,0,0.,24.0,0.,24.0
1979-08-03 09:29:54.650 ,7,1,0.,24.0,0.,24.0
1979-08-03 09:30:18.650 ,7,0,0.,24.0,0.,24.0
1979-08-03 09:30:42.650 ,6,1,0.,24.0,0.,24.0
1979-08-03 09:31:06.650 ,6,0,0.,24.0,0.,24.0
1979-08-03 09:31:30.650 ,5,1,0.,24.0,0.,24.0
1979-08-03 09:31:54.650 ,5,0,0.,24.0,0.,24.0
1979-08-03 09:32:18.650 ,4,1,0.,24.0,0.,24.0
1979-08-03 09:32:42.650 ,4,0,0.,24.0,0.,24.0
1979-08-03 09:33:06.650 ,3,1,0.,24.0,0.,24.0
1979-08-03 09:33:30.650 ,3,0,0.,24.0,0.,24.0
1979-08-03 09:33:54.650 ,2,1,0.,24.0,0.,24.0
1979-08-03 09:34:18.650 ,2,0,0.,24.0,0.,24.0
1979-08-03 09:34:42.650 ,1,1,0.,24.0,0.,24.0
1979-08-03 09:35:06.650 ,1,0,0.,24.0,0.,24.0
1979-08-03 09:35:30.650 ,0,1,0.,24.0,0.,24.0
1979-08-03 09:35:54.650 ,0,0,0.,24.0,0.,24.0
1979-08-03 09:36:18.650 ,0,1,0.,24.0,0.,24.0
1979-08-03 09:36:42.650 ,0,0,0.,24.0,0.,24.0
1979-08-03 09:37:06.650 ,1,1,0.,24.0,0.,24.0
1979-08-03 09:37:30.650 ,1,0,0.,24.0,0.,24.0
1979-08-03 09:37:54.650 ,2,1,0.,24.0,0.,24.0
1979-08-03 09:38:18.650 ,2,0,0.,24.0,0.,24.0
1979-08-03 09:38:42.650 ,3,1,0.,24.0,0.,24.0
1979-08-03 09:39:06.650 ,3,0,0.,24.0,0.,24.0
1979-08-03 09:39:30.650 ,4,1,0.,24.0,0.,24.0
1979-08-03 09:39:54.650 ,4,0,0.,24.0,0.,24.0
1979-08-03 09:40:18.650 ,5,1,0.,24.0,0.,24.0
1979-08-03 09:40:42.650 ,5,0,0.,24.0,0.,24.0
1979-08-03 09:41:06.650 ,6,1,0.,24.0,0.,24.0
1979-08-03 09:41:30.650 ,6,0,0.,24.0,0.,24.0
1979-08-03 09:41:54.650 ,7,1,0.,24.0,0.,24.0
1979-08-03 09:42:18.650 ,7,0,0.,24.0,0.,24.0
1979-08-03 09:42:42.650 ,7,1,0.,24.0,0.,24.0
1979-08-03 09:43:06.650 ,7,0,0.,24.0,0.,24.0
1979-08-03 09:43:30.650 ,6,1,0.,24.0,0.,24.0
1979-08-03 09:43:54.650 ,6,0,0.,24.0,0.,24.0
1979-08-03 09:44:18.650 ,5,1,0.,24.0,0.,24.0
1979-08-03 09:44:42.650 ,5,0,0.,24.0,0.,24.0
1979-08-03 09:45:06.650 ,4,1,0.,24.0,0.,24.0
1979-08-03 09:45:30.650 ,4,0,0.,24.0,0.,24.0
1979-08-03 09:45:54.650 ,3,1,0.,24.0,0.,24.0
1979-08-03 09:46:18.650 ,3,0,0.,24.0,0.,24.0
1979-08-03 09:46:42.650 ,2,1,0.,24.0,0.,24.0
1979-08-03 09:47:06.650 ,2,0,0.,24.0,0.,24.0
1979-08-03 09:47:30.650 ,1,1,0.,24.0,0.,24.0
1979-08-03 09:47:54.650 ,1,0,0.,24.0,0.,24.0
1979-08-03 09:48:18.650 ,0,1,0.,24.0,0.,24.0
1979-08-03 09:48:42.650 ,0,0,0.,24.0,0.,24.0
1979-08-03 09:49:06.650 ,0,1,0.,24.0,0.,24.0
1979-08-03 09:49:30.650 ,0,0,0.,24.0,0.,24.0
1979-08-03 09:49:54.650 ,1,1,0.,24.0,0.,24.0
1979-08-03 09:50:18.650 ,1,0,0.,24.0,0.,24.0
1979-08-03 09:50:42.650 ,2,1,0.,24.0,0.,24.0
1979-08-03 09:51:06.650 ,2,0,0.,24.0,0.,24.0
1979-08-03 09:51:30.650 ,3,1,0.,24.0,0.,24.0
1979-08-03 09:51:54.650 ,3,0,0.,24.0,0.,24.0
1979-08-03 09:52:18.650 ,4,1,0.,24.0,0.,24.0
1979-08-03 09:52:42.650 ,4,0,0.,24.0,0.,24.0
1979-08-03 09:53:06.650 ,5,1,0.,24.0,0.,24.0
1979-08-03 09:53:30.650 ,5,0,0.,24.0,0.,24.0
1979-08-03 09:53:54.650 ,6,1,0.,24.0,0.,24.0
1979-08-03 09:54:18.650 ,6,0,0.,24.0,0.,24.0
1979-08-03 09:54:42.650 ,7,0,0.,24.0,0.,24.0
1979-08-03 09:55:06.650 ,7,0,0.,24.0,0.,24.0
1979-08-03 09:55:30.650 ,3,1,0.,24.0,0.,24.0
1979-08-03 09:55:54.650 ,0,1,0.,24.0,0.,24.0
1979-08-03 09:56:18.650 ,4,1,0.,24.0,0.,24.0
1979-08-03 09:56:42.650 ,7,1,0.,24.0,0.,24.0
1979-08-03 09:57:06.650 ,3,1,0.,24.0,0.,24.0
1979-08-03 09:57:30.650 ,0,1,0.,24.0,0.,24.0
1979-08-03 09:57:54.650 ,4,1,0.,24.0,0.,24.0
1979-08-03 09:58:18.650 ,7,1,0.,24.0,0.,24.0
1979-08-03 09:58:42.650 ,3,1,0.,24.0,0.,24.0
1979-08-03 09:59:06.650 ,0,1,0.,24.0,0.,24.0
1979-08-03 09:59:30.650 ,4,1,0.,24.0,0.,24.0
1979-08-03 09:59:54.650 ,7,1,0.,24.0,0.,24.0
1979-08-03 10:00:18.650 ,3,1,0.,24.0,0.,24.0
1979-08-03 10:00:42.650 ,0,1,0.,24.0,0.,24.0
1979-08-03 10:01:06.650 ,4,1,0.,24.0,0.,24.0
1979-08-03 10:01:30.650 ,7,1,0.,24.0,0.,24.0
1979-08-03 10:01:54.650 ,3,1,0.,24.0,0.,24.0
1979-08-03 10:02:18.650 ,0,1,0.,24.0,0.,24.0
1979-08-03 10:02:42.650 ,4,1,0.,24.0,0.,24.0
1979-08-03 10:03:06.650 ,7,1,0.,24.0,0.,24.0
1979-08-03 10:03:30.650 ,3,1,0.,24.0,0.,24.0
1979-08-03 10:03:54.650 ,0,1,0.,24.0,0.,24.0
1979-08-03 10:04:19.850 ,4,1,0.,24.0,0.,24.0
1979-08-03 10:04:42.650 ,7,1,0.,24.0,0.,24.0
1979-08-03 10:05:06.650 ,0,0,,0,,0
1979-08-03 10:05:30.650 ,0,0,0.,24.0,0.,24.0
1979-08-03 10:05:54.650 ,0,0,0.,24.0,0.,24.0
1979-08-03 10:06:18.650 ,0,0,0.,24.0,0.,24.0
1979-08-03 10:06:42.650 ,5,1,0.,24.0,0.,24.0
1979-08-03 10:07:06.650 ,5,0,0.,24.0,0.,24.0
1979-08-03 10:07:30.650 ,4,1,0.,24.0,0.,24.0
1979-08-03 10:07:54.650 ,4,0,0.,24.0,0.,24.0
1979-08-03 10:08:18.650 ,3,1,0.,24.0,0.,24.0
1979-08-03 10:08:42.650 ,3,0,0.,24.0,0.,24.0
1979-08-03 10:09:06.650 ,2,1,0.,24.0,0.,24.0
1979-08-03 10:09:30.650 ,2,0,0.,24.0,0.,24.0
1979-08-03 10:09:54.650 ,1,1,0.,24.0,0.,24.0
1979-08-03 10:10:18.650 ,1,0,0.,24.0,0.,24.0
1979-08-03 10:10:42.650 ,0,1,0.,24.0,0.,24.0
1979-08-03 10:11:06.650 ,0,0,0.,24.0,0.,24.0
1979-08-03 10:11:30.650 ,0,1,0.,24.0,0.,24.0
1979-08-03 10:11:54.650 ,0,0,0.,24.0,0.,24.0
1979-08-03 10:12:21.050 ,1,1,0.,24.0,0.,24.0
1979-08-03 10:12:42.650 ,1,0,0.,24.0,0.,24.0
1979-08-03 10:13:06.650 ,2,1,0.,24.0,0.,24.0
1979-08-03 10:13:30.650 ,2,0,0.,24.0,0.,24.0
1979-08-03 10:13:54.650 ,3,1,0.,24.0,0.,24.0
1979-08-03 10:14:18.650 ,3,0,0.,24.0,0.,24.0
1979-08-03 10:14:42.650 ,4,1,0.,24.0,0.,24.0
1979-08-03 10:15:06.650 ,4,0,0.,24.0,0.,24.0
1979-08-03 10:15:30.650 ,5,1,0.,24.0,0.,24.0
1979-08-03 10:15:54.650 ,5,0,0.,24.0,0.,24.0
1979-08-03 10:16:18.650 ,6,1,0.,24.0,0.,24.0
1979-08-03 10:16:42.650 ,6,0,0.,24.0,0.,24.0
1979-08-03 10:17:06.650 ,7,1,0.,24.0,0.,24.0
1979-08-03 10:17:30.650 ,7,0,0.,24.0,0.,24.0
1979-08-03 10:17:54.650 ,7,1,0.,24.0,0.,24.0
1979-08-03 10:18:18.650 ,7,0,0.,24.0,0.,24.0
1979-08-03 10:18:42.650 ,6,1,0.,24.0,0.,24.0
1979-08-03 10:19:06.650 ,6,0,0.,24.0,0.,24.0
1979-08-03 10:19:30.650 ,5,1,0.,24.0,0.,24.0
1979-08-03 10:19:54.650 ,5,0,0.,24.0,0.,24.0
1979-08-03 10:20:18.650 ,4,1,0.,24.0,0.,24.0
1979-08-03 10:20:42.650 ,4,0,0.,24.0,0.,24.0
1979-08-03 10:21:06.650 ,3,1,0.,24.0,0.,24.0
1979-08-03 10:21:30.650 ,3,0,0.,24.0,0.,24.0
1979-08-03 10:21:54.650 ,2,1,0.,24.0,0.,24.0
1979-08-03 10:22:18.650 ,2,0,0.,24.0,0.,24.0
1979-08-03 10:22:42.650 ,1,1,0.,24.0,0.,24.0
1979-08-03 10:23:06.650 ,1,0,0.,24.0,0.,24.0
1979-08-03 10:23:30.650 ,0,1,0.,24.0,0.,24.0
1979-08-03 10:23:54.650 ,0,0,0.,24.0,0.,24.0
1979-08-03 10:24:18.650 ,0,1,0.,24.0,0.,24.0
1979-08-03 10:24:42.650 ,0,0,0.,24.0,0.,24.0
1979-08-03 10:25:06.650 ,1,1,0.,24.0,0.,24.0
1979-08-03 10:25:30.650 ,1,0,0.,24.0,0.,24.0
1979-08-03 10:25:54.650 ,2,1,0.,24.0,0.,24.0
1979-08-03 10:26:18.650 ,2,0,0.,24.0,0.,24.0
1979-08-03 10:26:42.650 ,3,1,0.,24.0,0.,24.0
1979-08-03 10:27:06.650 ,3,0,0.,24.0,0.,24.0
1979-08-03 10:27:30.650 ,4,1,0.,24.0,0.,24.0
1979-08-03 10:27:54.650 ,4,0,0.,24.0,0.,24.0
1979-08-03 10:28:18.650 ,5,1,0.,24.0,0.,24.0
1979-08-03 10:28:42.650 ,5,0,0.,24.0,0.,24.0
1979-08-03 10:29:06.650 ,6,1,0.,24.0,0.,24.0
1979-08-03 10:29:30.650 ,6,0,0.,24.0,0.,24.0
1979-08-03 10:29:54.650 ,7,1,0.,24.0,0.,24.0
1979-08-03 10:30:18.650 ,7,0,0.,24.0,0.,24.0
1979-08-03 10:30:42.650 ,7,1,0.,24.0,0.,24.0
1979-08-03 10:31:06.650 ,7,0,0.,24.0,0.,24.0
1979-08-03 10:31:30.650 ,6,1,0.,24.0,0.,24.0
1979-08-03 10:31:54.650 ,6,0,0.,24.0,0.,24.0
1979-08-03 10:32:18.650 ,5,1,0.,24.0,0.,24.0
1979-08-03 10:32:42.650 ,5,0,0.,24.0,0.,24.0
1979-08-03 10:33:06.650 ,4,1,0.,24.0,0.,24.0
1979-08-03 10:33:30.650 ,4,0,0.,24.0,0.,24.0
1979-08-03 10:33:54.650 ,3,1,0.,24.0,0.,24.0
1979-08-03 10:34:18.650 ,3,0,0.,24.0,0.,24.0
1979-08-03 10:34:42.650 ,2,1,0.,24.0,0.,24.0
1979-08-03 10:35:06.650 ,2,0,0.,24.0,0.,24.0
1979-08-03 10:35:30.650 ,1,1,0.,24.0,0.,24.0
1979-08-03 10:35:54.650 ,1,0,0.,24.0,0.,24.0
1979-08-03 10:36:18.650 ,0,1,0.,24.0,0.,24.0
1979-08-03 10:36:42.650 ,0,0,0.,24.0,0.,24.0
1979-08-03 10:37:06.650 ,0,1,0.,24.0,0.,24.0
1979-08-03 10:37:30.650 ,0,0,0.,24.0,0.,24.0
1979-08-03 10:37:54.650 ,1,1,0.,24.0,0.,24.0
1979-08-03 10:38:18.650 ,1,0,0.,24.0,0.,24.0
1979-08-03 10:38:42.650 ,2,1,0.,24.0,0.,24.0
1979-08-03 10:39:06.650 ,2,0,0.,24.0,0.,24.0
1979-08-03 10:39:30.650 ,3,1,0.,24.0,0.,24.0
1979-08-03 10:39:54.650 ,3,0,0.,24.0,0.,24.0
1979-08-03 10:40:18.650 ,4,1,0.,24.0,0.,24.0
1979-08-03 10:40:42.650 ,4,0,0.,24.0,0.,24.0
1979-08-03 10:41:06.650 ,5,1,0.,24.0,0.,24.0
1979-08-03 10:41:30.650 ,5,0,0.,24.0,0.,24.0
1979-08-03 10:41:54.650 ,6,1,0.,24.0,0.,24.0
1979-08-03 10:42:18.650 ,6,0,0.,24.0,0.,24.0
1979-08-03 10:42:42.650 ,7,0,0.,24.0,0.,24.0
1979-08-03 10:43:06.650 ,0,0,,0,,0
1979-08-03 10:43:34.850 ,0,0,0.,24.0,0.,24.0
1979-08-03 10:43:54.650 ,0,1,0.,24.0,0.,24.0
1979-08-03 10:44:18.650 ,4,1,0.,24.0,0.,24.0
1979-08-03 10:44:42.650 ,7,1,0.,24.0,0.,24.0
1979-08-03 10:45:06.650 ,3,1,0.,24.0,0.,24.0
1979-08-03 10:45:30.650 ,0,1,0.,24.0,0.,24.0
1979-08-03 10:45:54.650 ,4,1,0.,24.0,0.,24.0
1979-08-03 10:46:18.650 ,7,1,0.,24.0,0.,24.0
1979-08-03 10:46:42.650 ,3,1,0.,24.0,0.,24.0
1979-08-03 10:47:06.650 ,0,1,0.,24.0,0.,24.0
1979-08-03 10:47:30.650 ,4,1,0.,24.0,0.,24.0
1979-08-03 10:47:54.650 ,7,1,0.,24.0,0.,24.0
1979-08-03 10:48:18.650 ,3,1,0.,24.0,0.,24.0
1979-08-03 10:48:42.650 ,0,1,0.,24.0,0.,24.0
1979-08-03 10:49:06.650 ,4,1,0.,24.0,0.,24.0
1979-08-03 10:49:30.650 ,7,1,0.,24.0,0.,24.0
1979-08-03 10:49:54.650 ,3,1,0.,24.0,0.,24.0
1979-08-03 10:50:18.650 ,0,1,0.,24.0,0.,24.0
1979-08-03 10:50:42.650 ,0,0,0.,24.0,0.,24.0
1979-08-03 10:51:06.650 ,7,1,0.,24.0,0.,24.0
1979-08-03 10:51:30.650 ,3,1,0.,24.0,0.,24.0
1979-08-03 10:51:54.650 ,0,1,0.,24.0,0.,24.0
1979-08-03 10:52:18.650 ,4,1,0.,24.0,0.,24.0
1979-08-03 10:52:42.650 ,7,1,0.,24.0,0.,24.0
1979-08-03 10:53:06.650 ,3,1,0.,24.0,0.,24.0
1979-08-03 10:53:30.650 ,0,1,0.,24.0,0.,24.0
1979-08-03 10:53:54.650 ,0,0,0.,24.0,0.,24.0
1979-08-03 10:54:18.650 ,0,0,0.,24.0,0.,24.0
1979-08-03 10:54:42.650 ,5,1,0.,24.0,0.,24.0
1979-08-03 10:55:06.650 ,5,0,0.,24.0,0.,24.0
1979-08-03 10:55:30.650 ,4,1,0.,24.0,0.,24.0
1979-08-03 10:55:54.650 ,4,0,0.,24.0,0.,24.0
1979-08-03 10:56:18.650 ,3,1,0.,24.0,0.,24.0
1979-08-03 10:56:42.650 ,3,0,0.,24.0,0.,24.0
1979-08-03 10:57:06.650 ,2,1,0.,24.0,0.,24.0
1979-08-03 10:57:30.650 ,2,0,0.,24.0,0.,24.0
1979-08-03 10:57:54.650 ,1,1,0.,24.0,0.,24.0
1979-08-03 10:58:18.650 ,1,0,0.,24.0,0.,24.0
1979-08-03 10:58:42.650 ,0,1,0.,24.0,0.,24.0
1979-08-03 10:59:06.650 ,0,0,0.,24.0,0.,24.0
1979-08-03 10:59:30.650 ,0,1,0.,24.0,0.,24.0
1979-08-03 10:59:54.650 ,0,0,0.,24.0,0.,24.0
1979-08-03 11:00:18.650 ,1,1,0.,24.0,0.,24.0
1979-08-03 11:00:42.650 ,1,0,0.,24.0,0.,24.0
1979-08-03 11:01:06.650 ,2,1,0.,24.0,0.,24.0
1979-08-03 11:01:30.650 ,2,0,0.,24.0,0.,24.0
1979-08-03 11:01:54.650 ,3,1,0.,24.0,0.,24.0
1979-08-03 11:02:18.650 ,3,0,0.,24.0,0.,24.0
1979-08-03 11:02:42.650 ,4,1,0.,24.0,0.,24.0
1979-08-03 11:03:06.650 ,4,0,0.,24.0,0.,24.0
1979-08-03 11:03:30.650 ,5,1,0.,24.0,0.,24.0
1979-08-03 11:03:54.650 ,5,0,0.,24.0,0.,24.0
1979-08-03 11:04:18.640 ,6,1,0.,24.0,0.,24.0
1979-08-03 11:04:42.650 ,6,0,0.,24.0,0.,24.0
1979-08-03 11:05:06.650 ,7,1,0.,24.0,0.,24.0
1979-08-03 11:05:30.650 ,7,0,0.,24.0,0.,24.0
1979-08-03 11:05:54.650 ,7,1,0.,24.0,0.,24.0
1979-08-03 11:06:18.640 ,7,0,0.,24.0,0.,24.0
1979-08-03 11:06:42.650 ,6,1,0.,24.0,0.,24.0
1979-08-03 11:07:06.650 ,6,0,0.,24.0,0.,24.0
1979-08-03 11:07:30.650 ,5,1,0.,24.0,0.,24.0
1979-08-03 11:07:54.650 ,5,0,0.,24.0,0.,24.0
1979-08-03 11:08:18.640 ,4,1,0.,24.0,0.,24.0
1979-08-03 11:08:42.650 ,4,0,0.,24.0,0.,24.0
1979-08-03 11:09:06.650 ,3,1,0.,24.0,0.,24.0
1979-08-03 11:09:30.650 ,3,0,0.,24.0,0.,24.0
1979-08-03 11:09:54.650 ,2,1,0.,24.0,0.,24.0
1979-08-03 11:10:18.650 ,2,0,0.,24.0,0.,24.0
1979-08-03 11:10:42.650 ,1,1,0.,24.0,0.,24.0
1979-08-03 11:11:06.650 ,1,0,0.,24.0,0.,24.0
1979-08-03 11:11:30.650 ,0,1,0.,24.0,0.,24.0
1979-08-03 11:11:54.650 ,0,0,0.,24.0,0.,24.0
1979-08-03 11:12:18.650 ,0,1,0.,24.0,0.,24.0
1979-08-03 11:12:42.650 ,0,0,0.,24.0,0.,24.0
1979-08-03 11:13:06.650 ,1,1,0.,24.0,0.,24.0
1979-08-03 11:13:30.650 ,1,0,0.,24.0,0.,24.0
1979-08-03 11:13:54.650 ,0,0,,0,,0
1979-08-03 11:14:18.650 ,0,0,0.,24.0,0.,24.0
1979-08-03 11:14:42.650 ,3,1,0.,24.0,0.,24.0
1979-08-03 11:15:06.650 ,3,0,0.,24.0,0.,24.0
1979-08-03 11:15:30.650 ,4,1,0.,24.0,0.,24.0
1979-08-03 11:15:54.650 ,4,0,0.,24.0,0.,24.0
1979-08-03 11:16:18.650 ,5,1,0.,24.0,0.,24.0
1979-08-03 11:16:42.650 ,5,0,0.,24.0,0.,24.0
1979-08-03 11:17:06.650 ,6,1,0.,24.0,0.,24.0
1979-08-03 11:17:30.650 ,6,0,0.,24.0,0.,24.0
1979-08-03 11:17:54.650 ,7,1,0.,24.0,0.,24.0
1979-08-03 11:18:18.650 ,7,0,0.,24.0,0.,24.0
1979-08-03 11:18:42.640 ,7,1,0.,24.0,0.,24.0
1979-08-03 11:19:06.640 ,7,0,0.,24.0,0.,24.0
1979-08-03 11:19:30.640 ,6,1,0.,24.0,0.,24.0
1979-08-03 11:19:54.640 ,6,0,0.,24.0,0.,24.0
1979-08-03 11:20:18.640 ,5,1,0.,24.0,0.,24.0
1979-08-03 11:20:42.640 ,5,0,0.,24.0,0.,24.0
1979-08-03 11:21:06.640 ,4,1,0.,24.0,0.,24.0
1979-08-03 11:21:30.640 ,4,0,0.,24.0,0.,24.0
1979-08-03 11:21:54.640 ,3,1,0.,24.0,0.,24.0
1979-08-03 11:22:18.640 ,3,0,0.,24.0,0.,24.0
1979-08-03 11:22:42.640 ,2,1,0.,24.0,0.,24.0
1979-08-03 11:23:06.640 ,2,0,0.,24.0,0.,24.0
1979-08-03 11:23:30.640 ,1,1,0.,24.0,0.,24.0
1979-08-03 11:23:54.640 ,1,0,0.,24.0,0.,24.0
1979-08-03 11:24:18.640 ,0,1,0.,24.0,0.,24.0
1979-08-03 11:24:42.640 ,0,0,0.,24.0,0.,24.0
1979-08-03 11:25:06.640 ,0,1,0.,24.0,0.,24.0
1979-08-03 11:25:30.640 ,0,0,0.,24.0,0.,24.0
1979-08-03 11:25:54.640 ,1,1,0.,24.0,0.,24.0
1979-08-03 11:26:18.640 ,1,0,0.,24.0,0.,24.0
1979-08-03 11:26:42.640 ,2,1,0.,24.0,0.,24.0
1979-08-03 11:27:06.640 ,2,0,0.,24.0,0.,24.0
1979-08-03 11:27:30.640 ,3,1,0.,24.0,0.,24.0
1979-08-03 11:27:54.640 ,3,0,0.,24.0,0.,24.0
1979-08-03 11:28:18.640 ,4,1,0.,24.0,0.,24.0
1979-08-03 11:28:42.640 ,4,0,0.,24.0,0.,24.0
1979-08-03 11:29:06.640 ,5,1,0.,24.0,0.,24.0
1979-08-03 11:29:30.640 ,5,0,0.,24.0,0.,24.0
1979-08-03 11:29:54.640 ,6,1,0.,24.0,0.,24.0
1979-08-03 11:30:18.640 ,6,0,0.,24.0,0.,24.0
1979-08-03 11:30:42.640 ,7,0,0.,24.0,0.,24.0
1979-08-03 11:31:06.640 ,7,0,0.,24.0,0.,24.0
1979-08-03 11:31:30.640 ,3,1,0.,24.0,0.,24.0
1979-08-03 11:31:54.640 ,0,1,0.,24.0,0.,24.0
1979-08-03 11:32:18.640 ,4,1,0.,24.0,0.,24.0
1979-08-03 11:32:42.640 ,7,1,0.,24.0,0.,24.0
1979-08-03 11:33:06.640 ,3,1,0.,24.0,0.,24.0
1979-08-03 11:33:30.640 ,0,1,0.,24.0,0.,24.0
1979-08-03 11:33:54.640 ,4,1,0.,24.0,0.,24.0
1979-08-03 11:34:18.640 ,7,1,0.,24.0,0.,24.0
1979-08-03 11:34:42.640 ,3,1,0.,24.0,0.,24.0
1979-08-03 11:35:06.640 ,0,1,0.,24.0,0.,24.0
1979-08-03 11:35:30.640 ,4,1,0.,24.0,0.,24.0
1979-08-03 11:35:54.640 ,7,1,0.,24.0,0.,24.0
1979-08-03 11:36:18.640 ,3,1,0.,24.0,0.,24.0
1979-08-03 11:36:42.640 ,0,1,0.,24.0,0.,24.0
1979-08-03 11:37:06.640 ,4,1,0.,24.0,0.,24.0
1979-08-03 11:37:30.640 ,7,1,0.,24.0,0.,24.0
1979-08-03 11:37:54.640 ,3,1,0.,24.0,0.,24.0
1979-08-03 11:38:18.640 ,0,1,0.,24.0,0.,24.0
1979-08-03 11:38:42.640 ,4,1,0.,24.0,0.,24.0
1979-08-03 11:39:06.640 ,7,1,0.,24.0,0.,24.0
1979-08-03 11:39:30.640 ,3,1,0.,24.0,0.,24.0
1979-08-03 11:39:54.640 ,0,1,1.,24.0,0.,24.0
1979-08-03 11:40:18.640 ,4,1,0.,24.0,0.,24.0
1979-08-03 11:40:42.640 ,7,1,0.,24.0,0.,24.0
1979-08-03 11:41:06.640 ,3,1,0.,24.0,0.,24.0
1979-08-03 11:41:30.640 ,0,1,0.,24.0,0.,24.0
1979-08-03 11:41:54.640 ,0,0,0.,24.0,0.,24.0
1979-08-03 11:42:18.640 ,0,0,0.,24.0,0.,24.0
1979-08-03 11:42:42.640 ,5,1,0.,24.0,0.,24.0
1979-08-03 11:43:06.640 ,5,0,0.,24.0,0.,24.0
1979-08-03 11:43:30.640 ,4,1,0.,24.0,0.,24.0
1979-08-03 11:43:54.640 ,4,0,0.,24.0,0.,24.0
1979-08-03 11:44:18.640 ,3,1,0.,24.0,0.,24.0
1979-08-03 11:44:42.640 ,3,0,0.,24.0,0.,24.0
1979-08-03 11:45:06.640 ,2,1,0.,24.0,0.,24.0
1979-08-03 11:45:30.640 ,2,0,0.,24.0,0.,24.0
1979-08-03 11:45:54.640 ,1,1,0.,24.0,0.,24.0
1979-08-03 11:46:18.640 ,1,0,0.,24.0,0.,24.0
1979-08-03 11:46:42.640 ,0,1,0.,24.0,0.,24.0
1979-08-03 11:47:06.640 ,0,0,0.,24.0,0.,24.0
1979-08-03 11:47:30.640 ,0,1,0.,24.0,0.,24.0
1979-08-03 11:47:54.640 ,0,0,0.,24.0,0.,24.0
1979-08-03 11:48:18.640 ,1,1,0.,24.0,0.,24.0
1979-08-03 11:48:42.640 ,1,0,0.,24.0,0.,24.0
1979-08-03 11:49:06.640 ,2,1,0.,24.0,0.,24.0
1979-08-03 11:49:30.640 ,2,0,0.,24.0,0.,24.0
1979-08-03 11:49:54.640 ,3,1,0.,24.0,0.,24.0
1979-08-03 11:50:18.640 ,3,0,0.,24.0,0.,24.0
1979-08-03 11:50:42.640 ,4,1,0.,24.0,0.,24.0
1979-08-03 11:51:06.640 ,4,0,0.,24.0,0.,24.0
1979-08-03 11:51:30.640 ,5,1,0.,24.0,0.,24.0
1979-08-03 11:51:54.640 ,5,0,0.,24.0,0.,24.0
1979-08-03 11:52:18.640 ,6,1,0.,24.0,0.,24.0
1979-08-03 11:52:42.640 ,6,0,0.,24.0,0.,24.0
1979-08-03 11:53:06.640 ,7,1,0.,24.0,0.,24.0
1979-08-03 11:53:30.640 ,7,0,0.,24.0,0.,24.0
1979-08-03 11:53:54.640 ,7,1,0.,24.0,0.,24.0
1979-08-03 11:54:18.640 ,7,0,0.,24.0,0.,24.0
1979-08-03 11:54:42.640 ,6,1,0.,24.0,0.,24.0
1979-08-03 11:55:06.640 ,6,0,0.,24.0,0.,24.0
1979-08-03 11:55:30.640 ,5,1,0.,24.0,0.,24.0
1979-08-03 11:55:54.640 ,5,0,0.,24.0,0.,24.0
1979-08-03 11:56:18.640 ,4,1,0.,24.0,0.,24.0
1979-08-03 11:56:42.640 ,4,0,0.,24.0,0.,24.0
1979-08-03 11:57:06.640 ,3,1,0.,24.0,0.,24.0
1979-08-03 11:57:30.640 ,3,0,0.,24.0,0.,24.0
1979-08-03 11:57:54.640 ,2,1,0.,24.0,0.,24.0
1979-08-03 11:58:18.640 ,2,0,0.,24.0,0.,24.0
1979-08-03 11:58:42.640 ,1,1,0.,24.0,0.,24.0
1979-08-03 11:59:06.640 ,1,0,0.,24.0,0.,24.0
1979-08-03 11:59:30.640 ,0,1,0.,24.0,0.,24.0
1979-08-03 11:59:54.640 ,0,0,0.,24.0,0.,24.0
1979-08-03 12:00:18.640 ,0,1,0.,24.0,0.,24.0
